CW5988 Weather Reports


time (UTC)temp
C
wind
direction
speed
KPH
gust
KPH
rain 1hr
cm
rain 24hr
cm
rain mn
cm
humidity
%
barometer
mb
20260509011423 13 269 20.9 43.5 0.00 0.00 0.00 79 1016.1
20260509010951 13 284 22.5 40.2 0.00 0.00 0.00 79 1016.1
20260509010438 14 242 24.1 40.2 0.00 0.00 0.00 79 1016.1
20260509005923 14 298 19.3 37.0 0.00 0.00 0.00 79 1016.1
20260509005429 13 268 24.1 43.5 0.00 0.00 0.00 79 1016.1
20260509004933 13 275 19.3 43.5 0.00 0.00 0.00 79 1016.1
20260509004420 14 251 22.5 43.5 0.00 0.00 0.00 79 1016.2
20260509003922 13 277 22.5 54.7 0.00 0.00 0.00 79 1016.2
20260509003430 13 257 29.0 54.7 0.00 0.00 0.00 79 1016.1
20260509002938 13 257 27.4 46.7 0.00 0.00 0.00 79 1016.1
20260509002424 14 254 22.5 40.2 0.00 0.00 0.00 79 1016.2
20260509001927 13 254 20.9 43.5 0.00 0.00 0.00 79 1016.2
20260509001432 13 271 22.5 53.1 0.00 0.00 0.00 79 1016.2
20260509000937 13 258 29.0 53.1 0.00 0.00 0.00 79 1016.3
20260509000436 13 276 29.0 46.7 0.00 0.00 0.00 79 1016.2
20260508235942 14 268 27.4 46.7 0.00 0.00 0.00 79 1016.2
20260508235448 14 277 22.5 49.9 0.00 0.00 0.00 79 1016.2
20260508234931 14 270 29.0 46.7 0.00 0.00 0.00 78 1016.2
20260508234438 14 263 27.4 45.1 0.00 0.00 0.00 78 1016.2
20260508233925 14 251 27.4 46.7 0.00 0.00 0.00 78 1016.4
20260508233427 15 242 24.1 46.7 0.00 0.00 0.00 78 1016.4
20260508232934 15 237 24.1 45.1 0.00 0.00 0.00 78 1016.5
20260508232451 15 251 27.4 46.7 0.00 0.00 0.00 77 1016.7
20260508231938 15 265 22.5 48.3 0.00 0.00 0.00 77 1016.6
20260508231424 15 263 24.1 48.3 0.00 0.00 0.00 76 1016.7
20260508230931 15 251 19.3 41.8 0.00 0.00 0.00 77 1016.8
20260508230433 15 262 24.1 41.8 0.00 0.00 0.00 76 1016.8
20260508225935 15 262 16.1 33.8 0.00 0.00 0.00 76 1017.0
20260508225420 15 237 16.1 37.0 0.00 0.00 0.00 76 1017.2
20260508224930 15 261 20.9 37.0 0.00 0.00 0.00 76 1017.3
20260508224438 15 313 20.9 41.8 0.00 0.00 0.00 76 1017.4
20260508223924 15 237 16.1 32.2 0.00 0.00 0.00 76 1017.4
20260508223431 15 308 16.1 37.0 0.00 0.00 0.00 76 1017.4
20260508222935 15 270 20.9 37.0 0.00 0.00 0.00 76 1017.4
20260508222438 15 275 20.9 32.2 0.00 0.00 0.00 76 1017.5
20260508221942 16 315 14.5 35.4 0.00 0.00 0.00 76 1017.6
20260508221428 15 284 20.9 35.4 0.00 0.00 0.00 76 1017.7
20260508220936 15 282 20.9 35.4 0.00 0.00 0.00 76 1017.6
20260508220424 15 270 20.9 41.8 0.00 0.00 0.00 76 1017.7
20260508215959 15 282 24.1 41.8 0.00 0.00 0.00 76 1017.8
20260508215426 15 294 22.5 38.6 0.00 0.00 0.00 76 1017.9
20260508214935 15 275 20.9 37.0 0.00 0.00 0.00 76 1017.9
20260508214437 15 299 20.9 40.2 0.00 0.00 0.00 76 1017.9
20260508213925 15 272 20.9 40.2 0.00 0.00 0.00 77 1018.0
20260508213458 15 223 22.5 40.2 0.00 0.00 0.00 77 1018.0
20260508212924 15 265 25.7 41.8 0.00 0.00 0.00 77 1018.0
20260508212431 15 278 27.4 41.8 0.00 0.00 0.00 77 1018.0
20260508211938 15 244 25.7 38.6 0.00 0.00 0.00 76 1018.1
20260508211423 15 268 22.5 37.0 0.00 0.00 0.00 76 1018.1
20260508210927 15 251 19.3 40.2 0.00 0.00 0.00 77 1018.2
20260508210435 15 259 20.9 40.2 0.00 0.00 0.00 77 1018.2
20260508205923 15 229 24.1 37.0 0.00 0.00 0.00 77 1018.2
20260508205432 15 231 20.9 37.0 0.00 0.00 0.00 76 1018.2
20260508204922 15 243 19.3 35.4 0.00 0.00 0.00 76 1018.3
20260508204428 15 277 16.1 30.6 0.00 0.00 0.00 76 1018.3
20260508203935 15 268 17.7 30.6 0.00 0.00 0.00 76 1018.4
20260508203422 15 285 16.1 29.0 0.00 0.00 0.00 76 1018.4
20260508202924 15 268 17.7 30.6 0.00 0.00 0.00 76 1018.5
20260508202434 15 278 16.1 30.6 0.00 0.00 0.00 77 1018.5
20260508201951 15 257 16.1 32.2 0.00 0.00 0.00 76 1018.6
20260508201436 15 217 14.5 32.2 0.00 0.00 0.00 76 1018.6
20260508200942 15 224 16.1 27.4 0.00 0.00 0.00 77 1018.6
20260508200455 15 222 12.9 27.4 0.00 0.00 0.00 77 1018.6
20260508195939 15 233 14.5 32.2 0.00 0.00 0.00 77 1018.7
20260508195422 15 252 17.7 32.2 0.00 0.00 0.00 77 1018.8
20260508194959 15 249 16.1 27.4 0.00 0.00 0.00 77 1018.7
20260508194424 15 268 14.5 27.4 0.00 0.00 0.00 77 1018.7
20260508193931 15 316 16.1 29.0 0.00 0.00 0.00 78 1018.7
20260508193437 14 255 16.1 33.8 0.00 0.00 0.00 78 1018.9
20260508192926 14 207 19.3 33.8 0.00 0.00 0.00 78 1018.8
20260508192434 14 294 14.5 30.6 0.00 0.00 0.00 78 1018.8
20260508191922 14 216 16.1 30.6 0.00 0.00 0.00 78 1018.8
20260508191444 14 287 16.1 30.6 0.00 0.00 0.00 79 1018.9
20260508190930 14 282 14.5 27.4 0.00 0.00 0.00 79 1019.0
20260508190436 14 263 14.5 27.4 0.00 0.00 0.00 79 1019.0
20260508190000 14 284 16.1 35.4 0.00 0.00 0.00 80 1019.1
20260508185422 13 249 17.7 35.4 0.00 0.00 0.00 80 1019.0
20260508184927 13 276 17.7 29.0 0.00 0.00 0.00 80 1019.0
20260508184431 13 195 14.5 30.6 0.00 0.00 0.00 81 1019.0
20260508183921 13 261 16.1 30.6 0.00 0.00 0.00 81 1019.0
20260508183426 13 239 12.9 33.8 0.00 0.00 0.00 82 1019.1
20260508182932 13 273 17.7 33.8 0.00 0.00 0.00 82 1019.2
20260508182420 13 311 12.9 29.0 0.00 0.00 0.00 82 1019.2
20260508181926 13 249 16.1 27.4 0.00 0.00 0.00 82 1019.1
20260508181450 13 232 14.5 24.1 0.00 0.00 0.00 83 1019.3
20260508180936 13 310 8.0 20.9 0.00 0.00 0.00 83 1019.1
20260508180450 13 237 9.7 19.3 0.00 0.00 0.00 84 1019.1
20260508175934 12 286 6.4 22.5 0.00 0.00 0.00 84 1019.2
20260508175437 12 261 6.4 22.5 0.00 0.00 0.00 84 1019.2
20260508174922 12 40 8.0 19.3 0.00 0.00 0.00 84 1019.3
20260508174424 12 222 11.3 17.7 0.00 0.00 0.00 84 1019.3
20260508173932 12 299 9.7 20.9 0.00 0.00 0.00 84 1019.3
20260508173438 12 319 9.7 20.9 0.00 0.00 0.00 84 1019.4
20260508172954 12 255 6.4 19.3 0.00 0.00 0.00 84 1019.4
20260508172439 12 290 9.7 19.3 0.00 0.00 0.00 84 1019.5
20260508171925 12 256 8.0 24.1 0.00 0.00 0.00 84 1019.4
20260508171431 12 316 14.5 24.1 0.00 0.00 0.00 84 1019.4
20260508170920 12 264 11.3 22.5 0.00 0.00 0.00 83 1019.4
20260508170421 12 319 11.3 22.5 0.00 0.00 0.00 83 1019.4
20260508165944 12 298 9.7 19.3 0.00 0.00 0.00 83 1019.3
20260508165451 12 310 11.3 22.5 0.00 0.00 0.00 83 1019.3
20260508164935 12 268 11.3 27.4 0.00 0.00 0.00 83 1019.2
20260508164442 12 295 12.9 29.0 0.00 0.00 0.00 83 1019.3
20260508163923 12 249 16.1 29.0 0.00 0.00 0.00 82 1019.3
20260508163429 12 277 12.9 25.7 0.00 0.00 0.00 82 1019.2
20260508162937 12 274 11.3 29.0 0.00 0.00 0.00 82 1019.2
20260508162424 12 280 16.1 32.2 0.00 0.00 0.00 82 1019.2
20260508161931 12 275 17.7 32.2 0.00 0.00 0.00 82 1019.2
20260508161438 12 227 12.9 24.1 0.00 0.00 0.00 82 1019.1
20260508160924 12 265 9.7 25.7 0.00 0.00 0.00 82 1019.1
20260508160429 12 254 12.9 25.7 0.00 0.00 0.00 82 1019.0
20260508155930 12 285 9.7 22.5 0.00 0.00 0.00 83 1018.8
20260508155437 12 287 12.9 25.7 0.00 0.00 0.00 83 1018.8
20260508154922 12 268 14.5 25.7 0.00 0.00 0.00 83 1018.7
20260508154428 12 251 9.7 22.5 0.00 0.00 0.00 84 1018.8
20260508153933 12 270 14.5 22.5 0.00 0.00 0.00 84 1018.7
20260508153439 12 258 9.7 24.1 0.00 0.00 0.00 84 1018.8
20260508152954 12 277 6.4 24.1 0.00 0.00 0.00 84 1018.7
20260508152436 11 268 8.0 20.9 0.00 0.00 0.00 84 1018.7
20260508151924 11 294 8.0 24.1 0.00 0.00 0.00 84 1018.7
20260508151500 11 295 11.3 24.1 0.00 0.00 0.00 85 1018.7
20260508150924 11 225 8.0 17.7 0.00 0.00 0.00 84 1018.7
20260508150450 11 291 9.7 30.6 0.00 0.00 0.00 85 1018.7
20260508145934 11 303 17.7 30.6 0.00 0.00 0.00 85 1018.7
20260508145435 11 256 9.7 30.6 0.00 0.00 0.00 85 1018.7
20260508144937 11 283 11.3 30.6 0.00 0.00 0.00 85 1018.7
20260508144424 11 280 9.7 22.5 0.00 0.00 0.00 85 1018.7
20260508143932 11 282 12.9 27.4 0.00 0.00 0.00 85 1018.7
20260508143438 11 272 12.9 27.4 0.00 0.00 0.00 85 1018.7
20260508142921 11 285 12.9 25.7 0.00 0.00 0.00 85 1018.6
20260508142427 11 264 12.9 25.7 0.00 0.00 0.00 85 1018.6
20260508141935 11 211 9.7 22.5 0.00 0.00 0.00 85 1018.6
20260508141436 11 302 9.7 30.6 0.00 0.00 0.00 85 1018.5
20260508140924 11 294 12.9 30.6 0.00 0.00 0.00 85 1018.5
20260508140431 11 306 16.1 25.7 0.00 0.00 0.00 85 1018.5
20260508135936 11 252 9.7 33.8 0.00 0.00 0.00 85 1018.5
20260508135422 11 278 12.9 33.8 0.00 0.00 0.00 85 1018.4
20260508134928 11 232 12.9 35.4 0.00 0.00 0.00 85 1018.3
20260508134433 11 268 17.7 35.4 0.00 0.00 0.00 85 1018.3
20260508133934 11 263 17.7 35.4 0.00 0.00 0.00 85 1018.3
20260508133440 11 249 17.7 37.0 0.00 0.00 0.00 85 1018.2
20260508132924 11 275 22.5 37.0 0.00 0.00 0.00 84 1018.2
20260508132501 11 252 16.1 37.0 0.00 0.00 0.00 84 1018.2
20260508131925 11 280 17.7 38.6 0.00 0.00 0.00 85 1018.2
20260508131500 11 256 19.3 38.6 0.00 0.00 0.00 85 1018.2
20260508130925 11 258 9.7 32.2 0.00 0.00 0.00 84 1018.2
20260508130428 11 230 8.0 32.2 0.00 0.00 0.00 85 1018.2
20260508125932 11 222 9.7 22.5 0.00 0.00 0.00 85 1018.3
20260508125419 11 233 8.0 24.1 0.00 0.00 0.00 85 1018.2
20260508124927 11 268 11.3 29.0 0.00 0.00 0.00 84 1018.2
20260508124436 11 275 14.5 29.0 0.00 0.00 0.00 84 1018.2
20260508123922 11 211 11.3 29.0 0.00 0.00 0.00 84 1018.1
20260508123430 11 307 14.5 33.8 0.00 0.00 0.00 84 1018.2
20260508122932 11 277 17.7 33.8 0.00 0.00 0.00 84 1018.1
20260508122438 11 284 14.5 33.8 0.00 0.00 0.00 84 1018.1
20260508121956 11 310 8.0 17.7 0.00 0.00 0.00 84 1018.2
20260508121422 11 101 3.2 24.1 0.00 0.00 0.00 84 1018.2
20260508120931 11 209 9.7 25.7 0.00 0.00 0.00 85 1018.1
20260508120436 11 276 14.5 35.4 0.00 0.00 0.00 85 1018.1
20260508115923 11 261 8.0 35.4 0.00 0.00 0.00 85 1018.0
20260508115430 11 190 14.5 32.2 0.00 0.00 0.00 85 1018.0
20260508114935 11 314 12.9 32.2 0.00 0.00 0.00 85 1018.0
20260508114421 11 244 14.5 25.7 0.00 0.00 0.00 85 1018.2
20260508113958 11 313 6.4 22.5 0.00 0.00 0.00 85 1018.0
20260508113443 11 273 11.3 29.0 0.00 0.00 0.00 85 1018.0
20260508112928 11 251 12.9 29.0 0.00 0.00 0.00 85 1018.1
20260508112437 11 282 14.5 30.6 0.00 0.00 0.00 85 1018.2
20260508111921 11 296 16.1 30.6 0.00 0.00 0.00 85 1018.1
20260508111446 11 247 12.9 33.8 0.00 0.00 0.00 85 1018.0
20260508110934 11 263 9.7 27.4 0.00 0.00 0.00 85 1018.1
20260508110420 11 284 14.5 25.7 0.00 0.00 0.00 85 1018.1
20260508105928 11 231 9.7 27.4 0.00 0.00 0.00 85 1018.1
20260508105435 11 207 9.7 32.2 0.00 0.00 0.00 85 1018.0
20260508104922 11 280 17.7 32.2 0.00 0.00 0.00 85 1018.0
20260508104430 11 283 11.3 27.4 0.00 0.00 0.00 85 1018.2
20260508103936 11 273 9.7 27.4 0.00 0.00 0.00 85 1018.0
20260508103443 11 294 11.3 33.8 0.00 0.00 0.00 85 1018.1
20260508102928 11 278 16.1 33.8 0.00 0.00 0.00 85 1018.0
20260508102438 11 224 12.9 24.1 0.00 0.00 0.00 85 1018.0
20260508101924 11 310 12.9 30.6 0.00 0.00 0.00 85 1018.0
20260508101432 11 275 14.5 30.6 0.00 0.00 0.00 85 1018.0
20260508100921 11 278 9.7 24.1 0.00 0.00 0.00 85 1018.1
20260508100423 11 250 12.9 24.1 0.00 0.00 0.00 85 1018.1
20260508095928 11 261 11.3 27.4 0.00 0.00 0.00 85 1018.1
20260508095436 11 322 9.7 29.0 0.00 0.00 0.00 85 1018.2
20260508094944 11 197 12.9 29.0 0.00 0.00 0.00 85 1018.1
20260508094439 11 263 6.4 24.1 0.00 0.00 0.00 85 1018.2
20260508093926 11 295 3.2 27.4 0.00 0.00 0.00 85 1018.2
20260508093435 11 242 12.9 27.4 0.00 0.00 0.00 85 1018.1
20260508092939 11 212 6.4 20.9 0.00 0.00 0.00 85 1018.2
20260508092457 11 208 11.3 20.9 0.00 0.00 0.00 85 1018.3
20260508091921 11 261 8.0 20.9 0.00 0.00 0.00 85 1018.2
20260508091430 11 240 9.7 20.9 0.00 0.00 0.00 85 1018.2
20260508090937 11 197 6.4 19.3 0.00 0.00 0.00 85 1018.2
20260508090424 11 185 6.4 22.5 0.00 0.00 0.00 85 1018.1
20260508085931 11 1 4.8 22.5 0.00 0.00 0.00 85 1018.1
20260508085419 11 255 9.7 20.9 0.00 0.00 0.00 85 1018.0
20260508084921 11 264 4.8 22.5 0.00 0.00 0.00 85 1018.1
20260508084450 11 360 11.3 22.5 0.00 0.00 0.00 84 1018.2
20260508083936 11 249 6.4 20.9 0.00 0.00 0.00 84 1018.2
20260508083422 11 247 8.0 22.5 0.00 0.00 0.00 84 1018.1
20260508082931 11 296 8.0 22.5 0.00 0.00 0.00 84 1018.1
20260508082437 11 196 6.4 29.0 0.00 0.00 0.00 84 1018.2
20260508081924 11 301 12.9 29.0 0.00 0.00 0.00 84 1018.2
20260508081457 11 342 11.3 24.1 0.00 0.00 0.00 85 1018.2
20260508080922 11 200 8.0 20.9 0.00 0.00 0.00 85 1018.1
20260508080450 11 242 8.0 22.5 0.00 0.00 0.00 85 1018.2
20260508075937 11 268 9.7 25.7 0.00 0.00 0.00 84 1018.2
20260508075424 11 262 11.3 33.8 0.00 0.00 0.00 84 1018.2
20260508074929 11 261 14.5 33.8 0.00 0.00 0.00 84 1018.0
20260508074435 11 242 14.5 29.0 0.00 0.00 0.00 84 1017.9
20260508073935 11 270 14.5 27.4 0.00 0.00 0.00 84 1018.0
20260508073421 11 327 11.3 35.4 0.00 0.00 0.00 84 1017.9
20260508072927 11 272 11.3 35.4 0.00 0.00 0.00 84 1017.8
20260508072435 11 277 12.9 29.0 0.00 0.00 0.00 84 1017.9
20260508071942 11 300 11.3 27.4 0.00 0.00 0.00 84 1018.0
20260508071428 11 295 11.3 27.4 0.00 0.00 0.00 84 1017.9
20260508070936 11 280 11.3 32.2 0.00 0.00 0.00 84 1017.9
20260508070508 11 273 17.7 37.0 0.00 0.00 0.00 84 1017.9
20260508065926 11 258 16.1 37.0 0.00 0.00 0.00 84 1017.9
20260508065435 12 270 14.5 32.2 0.00 0.00 0.00 84 1018.0
20260508064921 12 278 12.9 33.8 0.00 0.00 0.00 84 1017.8
20260508064430 12 240 14.5 30.6 0.00 0.00 0.00 84 1017.9
20260508063937 12 265 16.1 29.0 0.00 0.00 0.00 84 1017.8
20260508063444 12 208 16.1 33.8 0.00 0.00 0.00 84 1017.9
20260508062946 12 188 19.3 33.8 0.00 0.00 0.00 84 1018.0
20260508062434 12 299 9.7 29.0 0.00 0.00 0.00 84 1018.0
20260508061923 12 225 14.5 37.0 0.00 0.00 0.00 84 1017.9
20260508061432 12 327 16.1 37.0 0.00 0.00 0.00 84 1017.9
20260508060921 12 177 14.5 32.2 0.00 0.00 0.00 84 1017.9
20260508060430 12 263 11.3 38.6 0.00 0.00 0.00 84 1018.0
20260508055937 12 256 22.5 46.7 0.00 0.00 0.00 84 1017.9
20260508055419 12 286 12.9 46.7 0.00 0.00 0.00 85 1017.9
20260508054926 12 304 19.3 41.8 0.00 0.00 0.00 85 1017.8
20260508054433 12 230 17.7 37.0 0.00 0.00 0.00 85 1017.9
20260508053921 12 305 19.3 45.1 0.00 0.00 0.00 85 1017.8
20260508053430 12 280 17.7 45.1 0.00 0.00 0.00 85 1017.9
20260508052935 12 308 14.5 25.7 0.00 0.00 0.00 85 1017.9
20260508052424 12 287 14.5 30.6 0.00 0.00 0.00 85 1017.9
20260508051931 12 259 14.5 30.6 0.00 0.00 0.00 85 1017.9
20260508051435 12 289 14.5 33.8 0.00 0.00 0.00 85 1018.0
20260508050923 12 274 20.9 40.2 0.00 0.00 0.00 85 1017.9
20260508050431 12 280 22.5 40.2 0.00 0.00 0.00 85 1017.9
20260508045936 12 242 17.7 33.8 0.00 0.00 0.00 86 1018.0
20260508045444 12 280 14.5 37.0 0.00 0.00 0.00 86 1017.9
20260508044931 12 268 19.3 37.0 0.00 0.00 0.00 86 1017.9
20260508044420 12 302 14.5 33.8 0.00 0.00 0.00 86 1017.9
20260508043922 12 287 19.3 32.2 0.00 0.00 0.00 86 1017.8
20260508043431 12 246 16.1 32.2 0.00 0.00 0.00 86 1017.8
20260508042938 12 259 12.9 27.4 0.00 0.00 0.00 86 1017.7
20260508042453 12 261 14.5 27.4 0.00 0.00 0.00 86 1017.7
20260508041921 12 251 12.9 27.4 0.00 0.00 0.00 86 1017.6
20260508041429 12 270 12.9 30.6 0.00 0.00 0.00 86 1017.6
20260508040937 12 251 16.1 30.6 0.00 0.00 0.00 86 1017.7
20260508040426 12 268 12.9 29.0 0.00 0.00 0.00 86 1017.6
20260508035929 12 276 12.9 29.0 0.00 0.00 0.00 86 1017.6
20260508035437 12 215 8.0 25.7 0.00 0.00 0.00 86 1017.5
20260508034923 12 322 8.0 27.4 0.00 0.00 0.00 86 1017.3
20260508034433 12 354 16.1 29.0 0.00 0.00 0.00 86 1017.3
20260508033920 12 253 11.3 30.6 0.00 0.00 0.00 86 1017.2
20260508033428 12 263 12.9 30.6 0.00 0.00 0.00 86 1017.2
20260508032934 12 244 12.9 24.1 0.00 0.00 0.00 86 1017.2
20260508032420 12 244 9.7 20.9 0.00 0.00 0.00 86 1017.2
20260508031921 12 285 9.7 27.4 0.00 0.00 0.00 86 1017.0
20260508031425 12 227 11.3 27.4 0.00 0.00 0.00 86 1017.0
20260508030932 12 258 9.7 25.7 0.00 0.00 0.00 86 1016.9
20260508030440 12 264 17.7 25.7 0.00 0.00 0.00 86 1016.9
20260508025927 12 247 11.3 30.6 0.00 0.00 0.00 86 1016.7
20260508025436 12 229 16.1 30.6 0.00 0.00 0.00 86 1016.7
20260508024923 12 232 14.5 25.7 0.00 0.00 0.00 85 1016.6
20260508024425 12 223 11.3 35.4 0.00 0.00 0.00 85 1016.7
20260508023933 12 306 17.7 35.4 0.00 0.00 0.00 85 1016.7
20260508023421 12 304 17.7 35.4 0.00 0.00 0.00 85 1016.7
20260508022958 12 220 14.5 37.0 0.00 0.00 0.00 85 1016.7
20260508022455 12 247 12.9 37.0 0.00 0.00 0.00 85 1016.7
20260508021920 12 268 17.7 40.2 0.00 0.00 0.00 85 1016.8
20260508021424 12 268 19.3 40.2 0.00 0.00 0.00 85 1016.8
20260508020946 12 244 16.1 35.4 0.00 0.00 0.00 84 1016.8
20260508020430 12 223 19.3 46.7 0.00 0.00 0.00 84 1016.8
20260508015938 12 294 20.9 46.7 0.00 0.00 0.00 84 1016.8
20260508015456 12 272 14.5 35.4 0.00 0.00 0.00 83 1016.7
20260508014923 12 258 17.7 45.1 0.00 0.00 0.00 83 1016.7
20260508014428 13 287 24.1 45.1 0.00 0.00 0.00 82 1016.7
20260508013930 13 323 20.9 38.6 0.00 0.00 0.00 82 1016.7
20260508013419 13 261 17.7 38.6 0.00 0.00 0.00 82 1016.7
20260508012924 13 296 16.1 38.6 0.00 0.00 0.00 81 1016.7
20260508012431 13 261 22.5 38.6 0.00 0.00 0.00 81 1016.7
20260508011939 13 270 16.1 33.8 0.00 0.00 0.00 81 1016.8